• în România
  • Lista ţărilor
  • Pe 7 zile
  • Temperatura apei
  • Hartă satelitară
  • Meteo pe hartă
  • Widget-uri
  • user-avatar
    Intrare

    Meteo pe oră la Zawtat

    Astăzi, 15 Decembrie, Vineri

    Timp Temperatura Precipitaţii Vânt Presiune Umiditate
    00:00 +9°C° 0,2 mm 6 m/s 736 mmHg 93%
    01:00 +9°C° 0 mm 7 m/s 735 mmHg 93%
    02:00 +9°C° 0,2 mm 7 m/s 735 mmHg 94%
    03:00 +10°C° 0,2 mm 7 m/s 735 mmHg 94%
    04:00 +10°C° 0,2 mm 7 m/s 734 mmHg 94%
    05:00 +10°C° 0,3 mm 7 m/s 734 mmHg 94%
    06:00 +10°C° 0,3 mm 7 m/s 734 mmHg 94%
    07:00 +10°C° 0,3 mm 7 m/s 734 mmHg 94%
    08:00 +10°C° 1,4 mm 8 m/s 733 mmHg 95%
    09:00 +10°C° 1,4 mm 8 m/s 733 mmHg 95%
    10:00 +10°C° 1,4 mm 8 m/s 733 mmHg 96%
    11:00 +10°C° 3,9 mm 9 m/s 732 mmHg 96%
    12:00 +10°C° 3,9 mm 9 m/s 732 mmHg 96%
    13:00 +10°C° 3,9 mm 9 m/s 731 mmHg 96%
    14:00 +9°C° 4,9 mm 10 m/s 731 mmHg 96%
    15:00 +9°C° 4,9 mm 10 m/s 731 mmHg 96%
    16:00 +9°C° 4,9 mm 10 m/s 730 mmHg 96%
    17:00 +9°C° 3,4 mm 10 m/s 730 mmHg 95%
    18:00 +9°C° 3,4 mm 10 m/s 729 mmHg 94%
    19:00 +11°C° 3,4 mm 11 m/s 729 mmHg 93%
    20:00 +10°C° 2,8 mm 12 m/s 729 mmHg 93%
    21:00 +10°C° 2,8 mm 12 m/s 728 mmHg 93%
    22:00 +10°C° 2,8 mm 13 m/s 728 mmHg 92%
    23:00 +10°C° 3,2 mm 13 m/s 728 mmHg 92%

    Mâine, 16 Decembrie, Sâmbătă

    Timp Temperatura Precipitaţii Vânt Presiune Umiditate
    00:00 +10°C° 3,2 mm 13 m/s 727 mmHg 91%
    01:00 +10°C° 3,2 mm 13 m/s 727 mmHg 91%
    02:00 +10°C° 3 mm 13 m/s 727 mmHg 91%
    03:00 +10°C° 3 mm 13 m/s 727 mmHg 91%
    04:00 +10°C° 3 mm 12 m/s 727 mmHg 91%
    05:00 +11°C° 1,2 mm 11 m/s 727 mmHg 91%
    06:00 +10°C° 1,2 mm 9 m/s 728 mmHg 91%
    07:00 +10°C° 1,2 mm 7 m/s 728 mmHg 92%
    08:00 +10°C° 0,2 mm 6 m/s 729 mmHg 89%
    09:00 +10°C° 0,2 mm 5 m/s 729 mmHg 86%
    10:00 +10°C° 0,2 mm 4 m/s 730 mmHg 84%
    11:00 +10°C° 0,1 mm 4 m/s 730 mmHg 82%
    12:00 +10°C° 0,1 mm 3 m/s 730 mmHg 80%
    13:00 +10°C° 0,1 mm 3 m/s 730 mmHg 78%
    14:00 +10°C° 0,1 mm 2 m/s 730 mmHg 79%
    15:00 +10°C° 0,1 mm 1 m/s 731 mmHg 81%
    16:00 +10°C° 0,1 mm 1 m/s 731 mmHg 82%
    17:00 +9°C° 0,2 mm 2 m/s 731 mmHg 83%
    18:00 +8°C° 0,2 mm 3 m/s 732 mmHg 85%
    19:00 +7°C° 0,2 mm 4 m/s 732 mmHg 86%
    20:00 +7°C° 0,8 mm 5 m/s 732 mmHg 86%
    21:00 +7°C° 0,8 mm 6 m/s 732 mmHg 85%
    22:00 +7°C° 0,8 mm 6 m/s 733 mmHg 84%
    23:00 +5°C° 0,4 mm 6 m/s 733 mmHg 85%

    Poimâine, 17 Decembrie, Duminică

    Timp Temperatura Precipitaţii Vânt Presiune Umiditate
    00:00 +6°C° 0,4 mm 5 m/s 733 mmHg 85%
    01:00 +5°C° 0,4 mm 4 m/s 733 mmHg 86%
    02:00 +5°C° 0,5 mm 3 m/s 733 mmHg 86%
    03:00 +5°C° 0,5 mm 3 m/s 734 mmHg 87%
    04:00 +5°C° 0,5 mm 3 m/s 734 mmHg 87%
    05:00 +5°C° 0,4 mm 3 m/s 734 mmHg 87%
    06:00 +5°C° 0,4 mm 3 m/s 735 mmHg 87%
    07:00 +5°C° 0,4 mm 3 m/s 735 mmHg 87%
    08:00 +5°C° 0,4 mm 4 m/s 736 mmHg 84%
    09:00 +5°C° 0,4 mm 4 m/s 736 mmHg 82%
    10:00 +5°C° 0,4 mm 4 m/s 737 mmHg 79%
    11:00 +5°C° 0,3 mm 5 m/s 737 mmHg 77%
    12:00 +5°C° 0,3 mm 5 m/s 737 mmHg 75%
    13:00 +5°C° 0,3 mm 6 m/s 738 mmHg 73%
    14:00 +4°C° 0,3 mm 6 m/s 738 mmHg 73%
    15:00 +3°C° 0,3 mm 6 m/s 739 mmHg 74%
    16:00 +3°C° 0,3 mm 7 m/s 739 mmHg 75%
    17:00 +2°C° 0,2 mm 7 m/s 740 mmHg 74%
    18:00 +2°C° 0,2 mm 6 m/s 740 mmHg 73%
    19:00 +2°C° 0,2 mm 6 m/s 741 mmHg 73%
    20:00 +1°C° 0,1 mm 6 m/s 741 mmHg 73%
    21:00 +1°C° 0,1 mm 6 m/s 742 mmHg 74%
    22:00 +1°C° 0,1 mm 5 m/s 743 mmHg 74%
    23:00 +1°C° 0 mm 5 m/s 743 mmHg 74%

    18 Decembrie, Luni

    Timp Temperatura Precipitaţii Vânt Presiune Umiditate
    00:00 0°C° 0 mm 5 m/s 743 mmHg 74%
    01:00 0°C° 0 mm 5 m/s 744 mmHg 73%
    02:00 0°C° 0 mm 5 m/s 744 mmHg 74%
    03:00 0°C° 0 mm 4 m/s 744 mmHg 74%
    04:00 -1°C° 0 mm 4 m/s 745 mmHg 74%
    05:00 -1°C° 0 mm 4 m/s 745 mmHg 75%
    06:00 -1°C° 0 mm 4 m/s 746 mmHg 75%
    07:00 -2°C° 0 mm 4 m/s 746 mmHg 76%
    08:00 -1°C° 0 mm 4 m/s 746 mmHg 71%
    09:00 0°C° 0 mm 4 m/s 746 mmHg 66%
    10:00 +1°C° 0 mm 4 m/s 746 mmHg 61%
    11:00 +3°C° 0 mm 3 m/s 746 mmHg 58%
    12:00 +3°C° 0 mm 3 m/s 746 mmHg 55%
    13:00 +5°C° 0 mm 2 m/s 745 mmHg 52%
    14:00 +4°C° 0 mm 2 m/s 745 mmHg 56%
    15:00 +4°C° 0 mm 2 m/s 745 mmHg 59%
    16:00 +3°C° 0 mm 2 m/s 745 mmHg 63%
    17:00 +3°C° 0 mm 2 m/s 745 mmHg 65%
    18:00 +2°C° 0 mm 2 m/s 746 mmHg 66%
    19:00 +2°C° 0 mm 2 m/s 746 mmHg 67%
    20:00 +2°C° 0 mm 2 m/s 746 mmHg 67%
    21:00 +2°C° 0 mm 2 m/s 747 mmHg 67%
    22:00 +2°C° 0 mm 2 m/s 747 mmHg 67%
    23:00 +2°C° 0 mm 2 m/s 747 mmHg 66%

    19 Decembrie, Marţi

    Timp Temperatura Precipitaţii Vânt Presiune Umiditate
    00:00 +2°C° 0 mm 2 m/s 747 mmHg 65%
    01:00 +2°C° 0 mm 2 m/s 747 mmHg 64%
    02:00 +2°C° 0 mm 2 m/s 747 mmHg 63%
    03:00 +2°C° 0 mm 2 m/s 747 mmHg 62%
    04:00 +2°C° 0 mm 2 m/s 747 mmHg 62%
    05:00 +2°C° 0 mm 2 m/s 747 mmHg 62%
    06:00 +2°C° 0 mm 2 m/s 748 mmHg 62%
    07:00 +2°C° 0 mm 2 m/s 748 mmHg 62%
    08:00 +3°C° 0 mm 2 m/s 748 mmHg 61%
    09:00 +4°C° 0 mm 2 m/s 748 mmHg 59%
    10:00 +5°C° 0 mm 2 m/s 749 mmHg 58%
    11:00 +7°C° 0 mm 1 m/s 748 mmHg 57%
    12:00 +7°C° 0 mm 1 m/s 748 mmHg 55%
    13:00 +8°C° 0 mm 1 m/s 748 mmHg 54%
    14:00 +7°C° 0 mm 1 m/s 748 mmHg 59%
    15:00 +6°C° 0 mm 2 m/s 748 mmHg 64%
    16:00 +5°C° 0 mm 2 m/s 748 mmHg 68%
    17:00 +4°C° 0 mm 2 m/s 749 mmHg 71%
    18:00 +4°C° 0 mm 2 m/s 749 mmHg 73%
    19:00 +3°C° 0 mm 2 m/s 749 mmHg 76%
    20:00 +2°C° 0 mm 3 m/s 750 mmHg 76%
    21:00 +2°C° 0 mm 3 m/s 750 mmHg 76%
    22:00 +1°C° 0 mm 3 m/s 750 mmHg 77%
    23:00 +1°C° 0 mm 3 m/s 750 mmHg 77%

    20 Decembrie, Miercuri

    Timp Temperatura Precipitaţii Vânt Presiune Umiditate
    00:00 +1°C° 0 mm 3 m/s 750 mmHg 76%
    01:00 +1°C° 0 mm 3 m/s 750 mmHg 76%
    02:00 +1°C° 0 mm 3 m/s 750 mmHg 76%
    03:00 +1°C° 0 mm 3 m/s 749 mmHg 76%
    04:00 +1°C° 0 mm 3 m/s 749 mmHg 76%
    05:00 +1°C° 0 mm 3 m/s 749 mmHg 76%
    06:00 +1°C° 0 mm 3 m/s 749 mmHg 77%
    07:00 +1°C° 0 mm 3 m/s 750 mmHg 77%
    08:00 +2°C° 0 mm 3 m/s 750 mmHg 73%
    09:00 +3°C° 0 mm 3 m/s 750 mmHg 69%
    10:00 +4°C° 0 mm 3 m/s 750 mmHg 66%
    11:00 +4°C° 0 mm 3 m/s 749 mmHg 62%
    12:00 +5°C° 0 mm 3 m/s 749 mmHg 59%
    13:00 +7°C° 0 mm 3 m/s 749 mmHg 56%
    14:00 +5°C° 0 mm 3 m/s 749 mmHg 59%
    15:00 +4°C° 0 mm 3 m/s 749 mmHg 63%
    16:00 +3°C° 0 mm 3 m/s 749 mmHg 66%
    17:00 +3°C° 0 mm 3 m/s 749 mmHg 68%
    18:00 +1°C° 0 mm 4 m/s 749 mmHg 71%
    19:00 +1°C° 0 mm 4 m/s 749 mmHg 73%
    20:00 +1°C° 0 mm 4 m/s 750 mmHg 73%
    21:00 +1°C° 0 mm 4 m/s 750 mmHg 73%
    22:00 +1°C° 0 mm 4 m/s 750 mmHg 74%
    23:00 +1°C° 0 mm 4 m/s 750 mmHg 74%
    Arată mai mult